When you browse on this site, cookies collect data to enhance your experience and personalize the content and advertising you see.
Visit our Privacy Policy to learn more. By continuing to use the site, you agree to this use of cookies and data.
  • In France
  • List of Countries
  • For 7 days
  • Water Temperature
  • Satellite Maps
  • Weather Map
  • Weather Widgets
  • user-avatar
    Login

    Hourly Weather Elbasan

    Today, 18 November, Sunday

    Time Temperature Precipitation Wind Pressure Humidity
    00:00 +6°C° 0.2 mm 4 mps 737 mmHg 74%
    01:00 +7°C° 0 mm 3 mps 737 mmHg 74%
    02:00 +7°C° 0.1 mm 3 mps 736 mmHg 74%
    03:00 +6°C° 0.1 mm 4 mps 736 mmHg 74%
    04:00 +6°C° 0.1 mm 4 mps 736 mmHg 75%
    05:00 +6°C° 0.6 mm 4 mps 736 mmHg 75%
    06:00 +6°C° 0.6 mm 4 mps 735 mmHg 76%
    07:00 +6°C° 0 mm 4 mps 735 mmHg 76%
    08:00 +6°C° 1 mm 4 mps 735 mmHg 76%
    09:00 +7°C° 1 mm 4 mps 734 mmHg 76%
    10:00 +7°C° 1 mm 4 mps 734 mmHg 76%
    11:00 +7°C° 1.6 mm 4 mps 733 mmHg 78%
    12:00 +7°C° 1.6 mm 4 mps 733 mmHg 79%
    13:00 +7°C° 1.6 mm 4 mps 732 mmHg 81%
    14:00 +8°C° 1.7 mm 3 mps 732 mmHg 82%
    15:00 +8°C° 1.7 mm 3 mps 732 mmHg 83%
    16:00 +7°C° 1.7 mm 3 mps 731 mmHg 84%
    17:00 +7°C° 0.7 mm 2 mps 731 mmHg 85%
    18:00 +7°C° 0.7 mm 2 mps 731 mmHg 85%
    19:00 +7°C° 0.7 mm 2 mps 730 mmHg 85%
    20:00 +7°C° 0.1 mm 2 mps 730 mmHg 85%
    21:00 +7°C° 0.1 mm 2 mps 730 mmHg 85%
    22:00 +8°C° 0.1 mm 1 mps 731 mmHg 84%
    23:00 +8°C° 0 mm 1 mps 730 mmHg 84%

    Tomorrow, 19 November, Monday

    Time Temperature Precipitation Wind Pressure Humidity
    00:00 +7°C° 0 mm 1 mps 730 mmHg 84%
    01:00 +7°C° 0 mm 1 mps 730 mmHg 84%
    02:00 +7°C° 0 mm 1 mps 731 mmHg 84%
    03:00 +6°C° 0 mm 1 mps 731 mmHg 84%
    04:00 +6°C° 0 mm 1 mps 731 mmHg 84%
    05:00 +6°C° 0 mm 1 mps 731 mmHg 83%
    06:00 +6°C° 0 mm 1 mps 731 mmHg 83%
    07:00 +5°C° 0 mm 2 mps 731 mmHg 82%
    08:00 +7°C° 0 mm 2 mps 732 mmHg 78%
    09:00 +9°C° 0 mm 2 mps 732 mmHg 75%
    10:00 +10°C° 0 mm 2 mps 732 mmHg 71%
    11:00 +12°C° 0 mm 1 mps 732 mmHg 70%
    12:00 +12°C° 0 mm 1 mps 732 mmHg 69%
    13:00 +13°C° 0 mm 1 mps 732 mmHg 68%
    14:00 +12°C° 0 mm 2 mps 732 mmHg 71%
    15:00 +12°C° 0 mm 2 mps 732 mmHg 74%
    16:00 +10°C° 0 mm 2 mps 732 mmHg 77%
    17:00 +10°C° 0.1 mm 3 mps 732 mmHg 79%
    18:00 +9°C° 0.1 mm 3 mps 733 mmHg 82%
    19:00 +8°C° 0.1 mm 3 mps 733 mmHg 84%
    20:00 +9°C° 1.2 mm 3 mps 733 mmHg 85%
    21:00 +8°C° 1.2 mm 4 mps 733 mmHg 86%
    22:00 +8°C° 1.2 mm 4 mps 732 mmHg 86%
    23:00 +8°C° 1.3 mm 4 mps 732 mmHg 86%

    Day after tomorrow, 20 November, Tuesday

    Time Temperature Precipitation Wind Pressure Humidity
    00:00 +8°C° 1.3 mm 4 mps 732 mmHg 87%
    01:00 +8°C° 1.3 mm 4 mps 732 mmHg 87%
    02:00 +8°C° 0.7 mm 4 mps 732 mmHg 87%
    03:00 +10°C° 0.7 mm 4 mps 732 mmHg 87%
    04:00 +10°C° 0.7 mm 4 mps 732 mmHg 87%
    05:00 +10°C° 0.9 mm 4 mps 732 mmHg 87%
    06:00 +9°C° 0.9 mm 5 mps 732 mmHg 87%
    07:00 +9°C° 0.9 mm 5 mps 732 mmHg 87%
    08:00 +10°C° 0.4 mm 5 mps 732 mmHg 85%
    09:00 +12°C° 0.4 mm 5 mps 732 mmHg 84%
    10:00 +12°C° 0.4 mm 5 mps 732 mmHg 83%
    11:00 +13°C° 0.5 mm 5 mps 732 mmHg 82%
    12:00 +13°C° 0.5 mm 5 mps 732 mmHg 82%
    13:00 +13°C° 0.5 mm 4 mps 731 mmHg 82%
    14:00 +13°C° 0.8 mm 4 mps 731 mmHg 83%
    15:00 +13°C° 0.8 mm 4 mps 731 mmHg 84%
    16:00 +12°C° 0.8 mm 4 mps 731 mmHg 86%
    17:00 +12°C° 0.7 mm 4 mps 731 mmHg 86%
    18:00 +12°C° 0.7 mm 4 mps 731 mmHg 87%
    19:00 +12°C° 0.7 mm 4 mps 731 mmHg 88%
    20:00 +12°C° 1.4 mm 4 mps 731 mmHg 88%
    21:00 +12°C° 1.4 mm 3 mps 731 mmHg 88%
    22:00 +12°C° 1.4 mm 3 mps 732 mmHg 88%
    23:00 +11°C° 0.6 mm 3 mps 731 mmHg 89%

    21 November, Wednesday

    Time Temperature Precipitation Wind Pressure Humidity
    00:00 +11°C° 0.6 mm 3 mps 731 mmHg 89%
    01:00 +11°C° 0.6 mm 3 mps 730 mmHg 89%
    02:00 +11°C° 1.6 mm 3 mps 730 mmHg 90%
    03:00 +11°C° 1.6 mm 3 mps 730 mmHg 90%
    04:00 +11°C° 1.6 mm 3 mps 729 mmHg 90%
    05:00 +11°C° 1.1 mm 3 mps 729 mmHg 90%
    06:00 +11°C° 1.1 mm 3 mps 729 mmHg 91%
    07:00 +12°C° 1.1 mm 2 mps 730 mmHg 91%
    08:00 +12°C° 1.2 mm 2 mps 730 mmHg 91%
    09:00 +13°C° 1.2 mm 2 mps 730 mmHg 91%
    10:00 +13°C° 1.2 mm 2 mps 731 mmHg 91%
    11:00 +13°C° 1.1 mm 2 mps 731 mmHg 92%
    12:00 +13°C° 1.1 mm 2 mps 731 mmHg 93%
    13:00 +13°C° 1.1 mm 2 mps 731 mmHg 93%
    14:00 +13°C° 0.6 mm 2 mps 731 mmHg 94%
    15:00 +13°C° 0.6 mm 2 mps 732 mmHg 94%
    16:00 +13°C° 0.6 mm 2 mps 732 mmHg 94%
    17:00 +12°C° 0.1 mm 2 mps 732 mmHg 94%
    18:00 +12°C° 0.1 mm 2 mps 733 mmHg 94%
    19:00 +12°C° 0.1 mm 2 mps 733 mmHg 93%
    20:00 +12°C° 0.1 mm 2 mps 734 mmHg 93%
    21:00 +12°C° 0.1 mm 1 mps 734 mmHg 92%
    22:00 +12°C° 0.1 mm 1 mps 734 mmHg 92%
    23:00 +12°C° 0.1 mm 1 mps 734 mmHg 92%

    22 November, Thursday

    Time Temperature Precipitation Wind Pressure Humidity
    00:00 +12°C° 0.1 mm 1 mps 734 mmHg 92%
    01:00 +11°C° 0.1 mm 1 mps 734 mmHg 92%
    02:00 +11°C° 0 mm 1 mps 735 mmHg 92%
    03:00 +11°C° 0 mm 1 mps 735 mmHg 92%
    04:00 +11°C° 0 mm 1 mps 735 mmHg 92%
    05:00 +11°C° 0 mm 1 mps 735 mmHg 92%
    06:00 +11°C° 0 mm 1 mps 735 mmHg 92%
    07:00 +12°C° 0 mm 1 mps 736 mmHg 91%
    08:00 +13°C° 0.1 mm 1 mps 736 mmHg 87%
    09:00 +14°C° 0.1 mm 1 mps 736 mmHg 82%
    10:00 +15°C° 0.1 mm 1 mps 737 mmHg 77%
    11:00 +16°C° 0.1 mm 1 mps 736 mmHg 74%
    12:00 +16°C° 0.1 mm 1 mps 736 mmHg 72%
    13:00 +18°C° 0.1 mm 1 mps 736 mmHg 70%
    14:00 +16°C° 0.1 mm 1 mps 736 mmHg 74%
    15:00 +15°C° 0.1 mm 1 mps 736 mmHg 78%
    16:00 +15°C° 0.1 mm 1 mps 737 mmHg 82%
    17:00 +14°C° 0 mm 1 mps 737 mmHg 85%
    18:00 +13°C° 0 mm 1 mps 737 mmHg 87%
    19:00 +11°C° 0 mm 0 mps 738 mmHg 90%
    20:00 +11°C° 0 mm 0 mps 738 mmHg 90%
    21:00 +12°C° 0 mm 1 mps 738 mmHg 90%
    22:00 +12°C° 0 mm 1 mps 739 mmHg 90%
    23:00 +11°C° 0 mm 1 mps 739 mmHg 89%

    23 November, Friday

    Time Temperature Precipitation Wind Pressure Humidity
    00:00 +11°C° 0 mm 1 mps 739 mmHg 89%
    01:00 +11°C° 0 mm 1 mps 739 mmHg 88%
    02:00 +11°C° 0 mm 1 mps 739 mmHg 87%
    03:00 +11°C° 0 mm 1 mps 739 mmHg 87%
    04:00 +11°C° 0 mm 1 mps 740 mmHg 86%
    05:00 +10°C° 0 mm 1 mps 740 mmHg 86%
    06:00 +10°C° 0 mm 1 mps 740 mmHg 85%
    07:00 +10°C° 0 mm 1 mps 741 mmHg 85%
    08:00 +12°C° 0 mm 1 mps 741 mmHg 79%
    09:00 +14°C° 0 mm 1 mps 741 mmHg 74%
    10:00 +15°C° 0 mm 1 mps 742 mmHg 68%
    11:00 +16°C° 0 mm 1 mps 741 mmHg 65%
    12:00 +16°C° 0 mm 1 mps 741 mmHg 63%
    13:00 +18°C° 0 mm 1 mps 741 mmHg 60%
    14:00 +16°C° 0 mm 1 mps 741 mmHg 64%
    15:00 +15°C° 0 mm 1 mps 741 mmHg 68%
    16:00 +14°C° 0 mm 1 mps 741 mmHg 72%
    17:00 +13°C° 0 mm 1 mps 741 mmHg 74%
    18:00 +13°C° 0 mm 1 mps 742 mmHg 77%
    19:00 +12°C° 0 mm 1 mps 742 mmHg 79%
    20:00 +12°C° 0 mm 1 mps 742 mmHg 80%
    21:00 +11°C° 0 mm 1 mps 742 mmHg 80%
    22:00 +11°C° 0 mm 1 mps 742 mmHg 81%
    23:00 +11°C° 0 mm 1 mps 742 mmHg 81%
    Show more